Time,TemperatureF,DewpointF,PressureIn,WindDirection,WindDirectionDegrees,WindSpeedMPH,WindSpeedGustMPH,Humidity,HourlyPrecipIn,Conditions,Clouds,dailyrainin,SolarRadiationWatts/m^2,SoftwareType,DateUTC
2013-01-10 00:01:00,34.0,32.0,-100.00,NW,319,2.0,16.0,92,0.00,,,0.00,0.000000,,2013-01-10 05:01:00,
2013-01-10 00:33:00,34.0,32.0,-100.00,NW,319,2.0,16.0,92,0.00,,,0.00,0.000000,,2013-01-10 05:33:00,
2013-01-10 00:43:00,34.0,32.0,-100.00,NW,319,2.0,16.0,92,0.00,,,0.00,0.000000,,2013-01-10 05:43:00,
2013-01-10 00:53:00,34.0,32.0,-100.00,NW,319,2.0,16.0,92,0.00,,,0.00,0.000000,,2013-01-10 05:53:00,
2013-01-10 01:01:00,36.0,30.0,-100.00,West,260,3.0,18.0,78,0.00,,,0.00,0.000000,,2013-01-10 06:01:00,
2013-01-10 01:32:00,36.0,30.0,-100.00,West,260,3.0,18.0,78,0.00,,,0.00,0.000000,,2013-01-10 06:32:00,
2013-01-10 01:42:00,36.0,30.0,-100.00,West,260,3.0,18.0,78,0.00,,,0.00,0.000000,,2013-01-10 06:42:00,
2013-01-10 01:52:00,36.0,30.0,-100.00,West,260,3.0,18.0,78,0.00,,,0.00,0.000000,,2013-01-10 06:52:00,
2013-01-10 02:01:00,37.0,26.0,-100.00,WSW,257,4.0,26.0,65,0.00,,,0.00,0.000000,,2013-01-10 07:01:00,
2013-01-10 02:22:00,37.0,26.0,-100.00,WSW,257,4.0,26.0,65,0.00,,,0.00,0.000000,,2013-01-10 07:22:00,
2013-01-10 02:32:00,37.0,26.0,-100.00,WSW,257,4.0,26.0,65,0.00,,,0.00,0.000000,,2013-01-10 07:32:00,
2013-01-10 02:42:00,37.0,26.0,-100.00,WSW,257,4.0,26.0,65,0.00,,,0.00,0.000000,,2013-01-10 07:42:00,
2013-01-10 02:52:00,37.0,26.0,-100.00,WSW,257,4.0,26.0,65,0.00,,,0.00,0.000000,,2013-01-10 07:52:00,
2013-01-10 03:01:00,37.0,25.0,-100.00,WSW,246,6.0,18.0,61,0.00,,,0.00,0.000000,,2013-01-10 08:01:00,
2013-01-10 03:33:00,37.0,25.0,-100.00,WSW,246,6.0,18.0,61,0.00,,,0.00,0.000000,,2013-01-10 08:33:00,
2013-01-10 03:42:00,37.0,25.0,-100.00,WSW,246,6.0,18.0,61,0.00,,,0.00,0.000000,,2013-01-10 08:42:00,
2013-01-10 03:53:00,37.0,25.0,-100.00,WSW,246,6.0,18.0,61,0.00,,,0.00,0.000000,,2013-01-10 08:53:00,
2013-01-10 04:01:00,35.0,23.0,-100.00,SW,232,4.0,21.0,61,0.00,,,0.00,0.000000,,2013-01-10 09:01:00,
2013-01-10 04:32:00,35.0,23.0,-100.00,SW,232,4.0,21.0,61,0.00,,,0.00,0.000000,,2013-01-10 09:32:00,
2013-01-10 04:43:00,35.0,23.0,-100.00,SW,232,4.0,21.0,61,0.00,,,0.00,0.000000,,2013-01-10 09:43:00,
2013-01-10 04:53:00,35.0,23.0,-100.00,SW,232,4.0,21.0,61,0.00,,,0.00,0.000000,,2013-01-10 09:53:00,
2013-01-10 05:01:00,35.0,23.0,-100.00,WSW,256,6.0,19.0,61,0.00,,,0.00,0.000000,,2013-01-10 10:01:00,
2013-01-10 05:33:00,35.0,23.0,-100.00,WSW,256,6.0,19.0,61,0.00,,,0.00,0.000000,,2013-01-10 10:33:00,
2013-01-10 05:42:00,35.0,23.0,-100.00,WSW,256,6.0,19.0,61,0.00,,,0.00,0.000000,,2013-01-10 10:42:00,
2013-01-10 05:53:00,35.0,23.0,-100.00,WSW,256,6.0,19.0,61,0.00,,,0.00,0.000000,,2013-01-10 10:53:00,
2013-01-10 06:01:00,35.0,23.0,-100.00,WSW,243,6.0,21.0,62,0.00,,,0.00,0.000000,,2013-01-10 11:01:00,
2013-01-10 06:23:00,35.0,23.0,-100.00,WSW,243,6.0,21.0,62,0.00,,,0.00,0.000000,,2013-01-10 11:23:00,
2013-01-10 06:33:00,35.0,23.0,-100.00,WSW,243,6.0,21.0,62,0.00,,,0.00,0.000000,,2013-01-10 11:33:00,
2013-01-10 06:43:00,35.0,23.0,-100.00,WSW,243,6.0,21.0,62,0.00,,,0.00,0.000000,,2013-01-10 11:43:00,
2013-01-10 06:53:00,35.0,23.0,-100.00,WSW,243,6.0,21.0,62,0.00,,,0.00,0.000000,,2013-01-10 11:53:00,
2013-01-10 09:01:00,36.0,23.0,-100.00,NE,49,2.0,16.0,59,-99.99,,,0.00,56.000000,,2013-01-10 14:01:00,
2013-01-10 09:23:00,36.0,23.0,-100.00,NE,49,2.0,16.0,59,-99.99,,,0.00,56.000000,,2013-01-10 14:23:00,
2013-01-10 09:33:00,36.0,23.0,-100.00,NE,49,2.0,16.0,59,-99.99,,,0.00,56.000000,,2013-01-10 14:33:00,
2013-01-10 09:43:00,36.0,23.0,-100.00,NE,49,2.0,16.0,59,-99.99,,,0.00,56.000000,,2013-01-10 14:43:00,
2013-01-10 09:53:00,36.0,23.0,-100.00,NE,49,2.0,16.0,59,-99.99,,,0.00,56.000000,,2013-01-10 14:53:00,
2013-01-10 10:01:00,36.0,23.0,-100.00,NNW,347,3.0,11.0,60,0.00,,,0.00,49.000000,,2013-01-10 15:01:00,
2013-01-10 10:33:00,36.0,23.0,-100.00,NNW,347,3.0,11.0,60,0.00,,,0.00,49.000000,,2013-01-10 15:33:00,
2013-01-10 10:43:00,36.0,23.0,-100.00,NNW,347,3.0,11.0,60,0.00,,,0.00,49.000000,,2013-01-10 15:43:00,
2013-01-10 10:53:00,36.0,23.0,-100.00,NNW,347,3.0,11.0,60,0.00,,,0.00,49.000000,,2013-01-10 15:53:00,
2013-01-10 11:01:00,37.0,22.0,-100.00,NNW,328,3.0,13.0,55,0.00,,,0.00,149.000000,,2013-01-10 16:01:00,
2013-01-10 11:33:00,37.0,22.0,-100.00,NNW,328,3.0,13.0,55,0.00,,,0.00,149.000000,,2013-01-10 16:33:00,
2013-01-10 11:43:00,37.0,22.0,-100.00,NNW,328,3.0,13.0,55,0.00,,,0.00,149.000000,,2013-01-10 16:43:00,
2013-01-10 11:53:00,37.0,22.0,-100.00,NNW,328,3.0,13.0,55,0.00,,,0.00,149.000000,,2013-01-10 16:53:00,
2013-01-10 12:01:00,37.0,23.0,-100.00,NNE,15,3.0,13.0,56,0.00,,,0.00,125.000000,,2013-01-10 17:01:00,
2013-01-10 12:33:00,37.0,23.0,-100.00,NNE,15,3.0,13.0,56,0.00,,,0.00,125.000000,,2013-01-10 17:33:00,
2013-01-10 12:43:00,37.0,23.0,-100.00,NNE,15,3.0,13.0,56,0.00,,,0.00,125.000000,,2013-01-10 17:43:00,
2013-01-10 12:53:00,37.0,23.0,-100.00,NNE,15,3.0,13.0,56,0.00,,,0.00,125.000000,,2013-01-10 17:53:00,
2013-01-10 13:01:00,42.0,24.0,-100.00,East,97,2.0,10.0,48,0.00,,,0.00,198.000000,,2013-01-10 18:01:00,
2013-01-10 13:23:00,42.0,24.0,-100.00,East,97,2.0,10.0,48,0.00,,,0.00,198.000000,,2013-01-10 18:23:00,
2013-01-10 13:33:00,42.0,24.0,-100.00,East,97,2.0,10.0,48,0.00,,,0.00,198.000000,,2013-01-10 18:33:00,
2013-01-10 13:43:00,42.0,24.0,-100.00,East,97,2.0,10.0,48,0.00,,,0.00,198.000000,,2013-01-10 18:43:00,
2013-01-10 13:53:00,42.0,24.0,-100.00,East,97,2.0,10.0,48,0.00,,,0.00,198.000000,,2013-01-10 18:53:00,
2013-01-10 14:01:00,43.0,24.0,-100.00,North,359,3.0,10.0,46,0.00,,,-99.99,410.000000,,2013-01-10 19:01:00,
2013-01-10 14:33:00,43.0,24.0,-100.00,North,359,3.0,10.0,46,0.00,,,-99.99,410.000000,,2013-01-10 19:33:00,
2013-01-10 14:43:00,43.0,24.0,-100.00,North,359,3.0,10.0,46,0.00,,,-99.99,410.000000,,2013-01-10 19:43:00,
2013-01-10 14:53:00,43.0,24.0,-100.00,North,359,3.0,10.0,46,0.00,,,-99.99,410.000000,,2013-01-10 19:53:00,
2013-01-10 15:01:00,41.0,23.0,-100.00,NNE,29,2.0,11.0,48,0.00,,,0.00,314.000000,,2013-01-10 20:01:00,
2013-01-10 15:24:00,41.0,23.0,-100.00,NNE,29,2.0,11.0,48,0.00,,,0.00,314.000000,,2013-01-10 20:24:00,
2013-01-10 15:33:00,41.0,23.0,-100.00,NNE,29,2.0,11.0,48,0.00,,,0.00,314.000000,,2013-01-10 20:33:00,
2013-01-10 15:43:00,41.0,23.0,-100.00,NNE,29,2.0,11.0,48,0.00,,,0.00,314.000000,,2013-01-10 20:43:00,
2013-01-10 15:53:00,41.0,23.0,-100.00,NNE,29,2.0,11.0,48,0.00,,,0.00,314.000000,,2013-01-10 20:53:00,
2013-01-10 16:01:00,36.0,23.0,-100.00,NNE,29,0.0,10.0,58,0.00,,,0.00,74.000000,,2013-01-10 21:01:00,
2013-01-10 16:33:00,36.0,23.0,-100.00,NNE,29,0.0,10.0,58,0.00,,,0.00,74.000000,,2013-01-10 21:33:00,
2013-01-10 16:43:00,36.0,23.0,-100.00,NNE,29,0.0,10.0,58,0.00,,,0.00,74.000000,,2013-01-10 21:43:00,
2013-01-10 16:53:00,36.0,23.0,-100.00,NNE,29,0.0,10.0,58,0.00,,,0.00,74.000000,,2013-01-10 21:53:00,
2013-01-10 17:01:00,31.0,23.0,-100.00,NNE,26,0.0,5.0,71,0.00,,,0.00,6.000000,,2013-01-10 22:01:00,
2013-01-10 17:27:00,31.0,23.0,-100.00,NNE,26,0.0,5.0,71,0.00,,,0.00,6.000000,,2013-01-10 22:27:00,
2013-01-10 17:34:00,31.0,23.0,-100.00,NNE,26,0.0,5.0,71,0.00,,,0.00,6.000000,,2013-01-10 22:34:00,
2013-01-10 17:44:00,31.0,23.0,-100.00,NNE,26,0.0,5.0,71,0.00,,,0.00,6.000000,,2013-01-10 22:44:00,
2013-01-10 18:01:00,27.0,22.0,-100.00,NW,314,0.0,3.0,81,0.00,,,0.00,0.000000,,2013-01-10 23:01:00,
2013-01-10 18:33:00,27.0,22.0,-100.00,NW,314,0.0,3.0,81,0.00,,,0.00,0.000000,,2013-01-10 23:33:00,
2013-01-10 18:43:00,27.0,22.0,-100.00,NW,314,0.0,3.0,81,0.00,,,0.00,0.000000,,2013-01-10 23:43:00,
2013-01-10 18:53:00,27.0,22.0,-100.00,NW,314,0.0,3.0,81,0.00,,,0.00,0.000000,,2013-01-10 23:53:00,
2013-01-10 19:01:00,27.0,22.0,-100.00,NNW,327,0.0,2.0,82,0.00,,,0.00,0.000000,,2013-01-11 00:01:00,
2013-01-10 19:33:00,27.0,22.0,-100.00,NNW,327,0.0,2.0,82,0.00,,,0.00,0.000000,,2013-01-11 00:33:00,
2013-01-10 19:43:00,27.0,22.0,-100.00,NNW,327,0.0,2.0,82,0.00,,,0.00,0.000000,,2013-01-11 00:43:00,
2013-01-10 19:53:00,27.0,22.0,-100.00,NNW,327,0.0,2.0,82,0.00,,,0.00,0.000000,,2013-01-11 00:53:00,
2013-01-10 20:01:00,25.0,22.0,-100.00,SW,216,0.0,2.0,87,0.00,,,0.00,0.000000,,2013-01-11 01:01:00,
2013-01-10 20:34:00,25.0,22.0,-100.00,SW,216,0.0,2.0,87,0.00,,,0.00,0.000000,,2013-01-11 01:34:00,
2013-01-10 20:43:00,25.0,22.0,-100.00,SW,216,0.0,2.0,87,0.00,,,0.00,0.000000,,2013-01-11 01:43:00,
2013-01-10 20:53:00,25.0,22.0,-100.00,SW,216,0.0,2.0,87,0.00,,,0.00,0.000000,,2013-01-11 01:53:00,
2013-01-10 21:01:00,26.0,22.0,-100.00,SSW,192,1.0,3.0,84,0.00,,,0.00,0.000000,,2013-01-11 02:01:00,
2013-01-10 21:24:00,26.0,22.0,-100.00,SSW,192,1.0,3.0,84,0.00,,,0.00,0.000000,,2013-01-11 02:24:00,
2013-01-10 21:33:00,26.0,22.0,-100.00,SSW,192,1.0,3.0,84,0.00,,,0.00,0.000000,,2013-01-11 02:33:00,
2013-01-10 21:44:00,26.0,22.0,-100.00,SSW,192,1.0,3.0,84,0.00,,,0.00,0.000000,,2013-01-11 02:44:00,
2013-01-10 21:54:00,26.0,22.0,-100.00,SSW,192,1.0,3.0,84,0.00,,,0.00,0.000000,,2013-01-11 02:54:00,
2013-01-10 22:01:00,25.0,21.0,-100.00,SW,226,1.0,4.0,84,0.00,,,0.00,0.000000,,2013-01-11 03:01:00,
2013-01-10 22:34:00,25.0,21.0,-100.00,SW,226,1.0,4.0,84,0.00,,,0.00,0.000000,,2013-01-11 03:34:00,
2013-01-10 22:43:00,25.0,21.0,-100.00,SW,226,1.0,4.0,84,0.00,,,0.00,0.000000,,2013-01-11 03:43:00,
2013-01-10 22:53:00,25.0,21.0,-100.00,SW,226,1.0,4.0,84,0.00,,,0.00,0.000000,,2013-01-11 03:53:00,
2013-01-10 23:01:00,25.0,21.0,-100.00,SW,226,1.0,4.0,85,0.00,,,0.00,0.000000,,2013-01-11 04:01:00,
2013-01-10 23:33:00,25.0,21.0,-100.00,SW,226,1.0,4.0,85,0.00,,,0.00,0.000000,,2013-01-11 04:33:00,
2013-01-10 23:43:00,25.0,21.0,-100.00,SW,226,1.0,4.0,85,0.00,,,0.00,0.000000,,2013-01-11 04:43:00,
2013-01-10 23:53:00,25.0,21.0,-100.00,SW,226,1.0,4.0,85,0.00,,,0.00,0.000000,,2013-01-11 04:53:00,